This demonstration page uses our WeatherBlox Daily Observations layout. Learn more.

Left ArrowRight Arrow

34.02893, -84.19858

Hourly Observations for May 2, 2015

Temp ( °F °C ) Dew Point ( °F °C ) Humidity (%) Winds ( mph kmh ) Pressure ( in mb ) Visibility ( mi km ) Precip ( " mm )
12:53 am 00:53 Clear 53 11.7 44 6.7 72 72 NNE 3 6 30.06 1018 10 16 0.00 0.00
1:53 am 01:53 Clear 52 11.1 44 6.7 75 75 N 3 6 30.06 1018 10 16 0.00 0.00
2:53 am 02:53 Clear 50 10 44 6.7 80 80 VRB 3 6 30.06 1018 10 16 0.00 0.00
3:53 am 03:53 Clear 49 9.4 44 6.7 83 83 Calm 30.06 1018 10 16 0.00 0.00
4:53 am 04:53 Clear 48 8.9 44 6.7 86 86 Calm 30.07 1018 10 16 0.00 0.00
5:53 am 05:53 Clear 46 7.8 44 6.7 93 93 Calm 30.08 1019 9 14 0.00 0.00
6:53 am 06:53 Sunny 46 7.8 44 6.7 93 93 Calm 30.11 1020 7 11 0.00 0.00
7:53 am 07:53 Sunny 52 11.1 48 8.9 86 86 Calm 30.12 1020 8 13 0.00 0.00
8:53 am 08:53 Sunny 60 15.6 47 8.3 62 62 Calm 30.13 1020 10 16 0.00 0.00
9:53 am 09:53 Sunny 63 17.2 46 7.8 54 54 SSE 5 7 30.12 1020 10 16 0.00 0.00
10:53 am 10:53 Sunny 67 19.4 46 7.8 47 47 Calm 30.13 1020 10 16 0.00 0.00
11:53 am 11:53 Sunny 70 21.1 43 6.1 38 38 Calm 30.12 1020 10 16 0.00 0.00
12:53 pm 12:53 Sunny 71 21.7 44 6.7 38 38 Calm 30.11 1020 10 16 0.00 0.00
1:53 pm 13:53 Sunny 72 22.2 43 6.1 35 35 Calm 30.09 1019 10 16 0.00 0.00
2:53 pm 14:53 Sunny 74 23.3 44 6.7 34 34 WNW 6 9 30.07 1018 10 16 0.00 0.00
3:53 pm 15:53 Sunny 75 23.9 42 5.6 31 31 Calm 30.05 1018 10 16 0.00 0.00
4:53 pm 16:53 Sunny 75 23.9 43 6.1 32 32 VRB 3 6 30.02 1017 10 16 0.00 0.00
5:53 pm 17:53 Sunny 76 24.4 45 7.2 33 33 NNW 5 7 30.02 1017 10 16 0.00 0.00
6:53 pm 18:53 Sunny 74 23.3 44 6.7 34 34 WSW 6 9 30.02 1017 10 16 0.00 0.00
7:53 pm 19:53 Sunny 71 21.7 45 7.2 39 39 W 5 7 30.03 1017 10 16 0.00 0.00
8:53 pm 20:53 Clear 67 19.4 46 7.8 47 47 NW 3 6 30.04 1017 10 16 0.00 0.00
9:53 pm 21:53 Clear 62 16.7 47 8.3 58 58 Calm 30.07 1018 10 16 0.00 0.00
10:53 pm 22:53 Clear 60 15.6 48 8.9 65 65 Calm 30.08 1019 10 16 0.00 0.00
11:53 pm 23:53 Clear 56 13.3 49 9.4 77 77 Calm 30.09 1019 10 16 0.00 0.00

Powered by AerisWeather